| time (UTC) | temp F | wind direction | speed knots | gust knots | rain 1hr in | rain 24hr in | rain mn in | humidity % | barometer mb |
| 20260504081527 | 52 | 278 | 0.0 | 0.0 | 0.00 | 0.00 | 0.00 | 90 | 1017.4 |
| 20260504044525 | 54 | 127 | 0.0 | 0.0 | 0.00 | 0.00 | 0.00 | 88 | 1018.7 |
| 20260504043033 | 54 | 127 | 0.0 | 0.0 | 0.00 | 0.00 | 0.00 | 87 | 1018.9 |
| 20260504041517 | 55 | 127 | 0.0 | 0.0 | 0.00 | 0.00 | 0.00 | 87 | 1018.8 |
| 20260504040021 | 55 | 127 | 0.0 | 0.0 | 0.00 | 0.00 | 0.00 | 86 | 1018.7 |
| 20260504034526 | 56 | 127 | 0.0 | 0.0 | 0.00 | 0.00 | 0.00 | 85 | 1018.8 |
| 20260504033028 | 56 | 127 | 0.0 | 0.0 | 0.00 | 0.00 | 0.00 | 85 | 1019.0 |
| 20260504031516 | 56 | 127 | 0.0 | 2.6 | 0.00 | 0.00 | 0.00 | 84 | 1019.1 |
| 20260504030003 | 57 | 120 | 0.0 | 0.0 | 0.00 | 0.00 | 0.00 | 83 | 1018.7 |
| 20260504024525 | 57 | 120 | 0.0 | 0.0 | 0.00 | 0.00 | 0.00 | 82 | 1018.6 |
| 20260504023012 | 58 | 120 | 0.0 | 0.0 | 0.00 | 0.00 | 0.00 | 80 | 1018.7 |
| 20260504021537 | 59 | 120 | 0.0 | 0.0 | 0.00 | 0.00 | 0.00 | 78 | 1018.5 |
| 20260504020032 | 59 | 120 | 0.0 | 0.0 | 0.00 | 0.00 | 0.00 | 78 | 1018.4 |
| 20260504014506 | 60 | 120 | 0.0 | 0.0 | 0.00 | 0.00 | 0.00 | 74 | 1018.3 |
| 20260504013006 | 61 | 120 | 0.0 | 0.0 | 0.00 | 0.00 | 0.00 | 71 | 1018.1 |
| 20260504011510 | 63 | 120 | 0.0 | 0.0 | 0.00 | 0.00 | 0.00 | 66 | 1018.0 |
| 20260504010018 | 64 | 120 | 0.0 | 0.0 | 0.00 | 0.00 | 0.00 | 62 | 1018.0 |
| 20260504004536 | 66 | 120 | 0.0 | 0.0 | 0.00 | 0.00 | 0.00 | 59 | 1017.9 |
| 20260504003005 | 68 | 120 | 0.0 | 0.9 | 0.00 | 0.00 | 0.00 | 55 | 1017.8 |
| 20260504001534 | 71 | 120 | 0.0 | 0.0 | 0.00 | 0.00 | 0.00 | 51 | 1017.8 |
| 20260504000016 | 75 | 120 | 0.0 | 0.9 | 0.00 | 0.00 | 0.00 | 47 | 1017.8 |
| 20260503213031 | 78 | 306 | 0.0 | 3.5 | 0.00 | 0.00 | 0.00 | 38 | 1018.5 |
| 20260503211523 | 77 | 36 | 0.9 | 5.2 | 0.00 | 0.00 | 0.00 | 39 | 1018.7 |
| 20260503210024 | 76 | 176 | 1.7 | 4.3 | 0.00 | 0.00 | 0.00 | 39 | 1018.9 |
| 20260503204524 | 76 | 316 | 0.0 | 4.3 | 0.00 | 0.00 | 0.00 | 32 | 1019.2 |
| 20260503203020 | 75 | 81 | 0.9 | 7.0 | 0.00 | 0.00 | 0.00 | 32 | 1019.3 |
| 20260503201522 | 76 | 93 | 0.9 | 4.3 | 0.00 | 0.00 | 0.00 | 34 | 1019.5 |
| 20260503200028 | 76 | 81 | 1.7 | 5.2 | 0.00 | 0.00 | 0.00 | 34 | 1019.7 |
| 20260503194512 | 77 | 240 | 0.9 | 7.8 | 0.00 | 0.00 | 0.00 | 34 | 1019.9 |
| 20260503193014 | 77 | 279 | 2.6 | 5.2 | 0.00 | 0.00 | 0.00 | 32 | 1020.2 |
| 20260503191520 | 75 | 172 | 0.0 | 3.5 | 0.00 | 0.00 | 0.00 | 39 | 1020.4 |
| 20260503190036 | 75 | 69 | 1.7 | 5.2 | 0.00 | 0.00 | 0.00 | 37 | 1020.7 |
| 20260503184527 | 75 | 77 | 1.7 | 4.3 | 0.00 | 0.00 | 0.00 | 36 | 1020.8 |
| 20260503183015 | 75 | 228 | 0.9 | 6.1 | 0.00 | 0.00 | 0.00 | 34 | 1021.0 |
| 20260503181510 | 74 | 120 | 0.9 | 7.0 | 0.00 | 0.00 | 0.00 | 36 | 1021.1 |
| 20260503180013 | 74 | 25 | 2.6 | 7.8 | 0.00 | 0.00 | 0.00 | 37 | 1021.4 |
| 20260503174507 | 74 | 241 | 0.9 | 5.2 | 0.00 | 0.00 | 0.00 | 36 | 1021.5 |
| 20260503173009 | 73 | 121 | 1.7 | 7.0 | 0.00 | 0.00 | 0.00 | 39 | 1021.8 |
| 20260503171523 | 74 | 135 | 0.9 | 4.3 | 0.00 | 0.00 | 0.00 | 36 | 1022.1 |